This is the latest recevied weather packets stored in our database for station/object KC3ELT-10. If no packets are shown the sender has not sent any weather packets the latest 10 day(s).
| Time | Temp. | Humidity | Pressure | Rain* | Wind** | Luminosity | Snow |
|---|---|---|---|---|---|---|---|
| 1777800179 | 4.44° C | 64% | 1005.9 hPa | 0 mm | 1.34 m/s, 354° | - | - |
| 1777799879 | 4.44° C | 64% | 1005.9 hPa | 0 mm | 1.79 m/s, 351° | - | - |
| 1777799579 | 4.44° C | 64% | 1005.8 hPa | 0 mm | 2.24 m/s, 350° | - | - |
| 1777799279 | 4.44° C | 64% | 1005.8 hPa | 0 mm | 1.34 m/s, 339° | - | - |
| 1777798979 | 4.44° C | 64% | 1005.8 hPa | 0 mm | 0.89 m/s, 23° | - | - |
| 1777798679 | 4.44° C | 64% | 1005.7 hPa | 0 mm | 0.89 m/s, 1° | - | - |
| 1777798379 | 4.44° C | 64% | 1005.7 hPa | 0 mm | 1.34 m/s, 348° | - | - |
| 1777798079 | 4.44° C | 63% | 1005.7 hPa | 0 mm | 0.89 m/s, 0° | - | - |
| 1777797779 | 4.44° C | 63% | 1005.7 hPa | 0 mm | 1.34 m/s, 359° | - | - |
| 1777797479 | 4.44° C | 63% | 1005.7 hPa | 0 mm | 1.34 m/s, 5° | - | - |
| 1777797179 | 4.44° C | 63% | 1005.7 hPa | 0 mm | 1.79 m/s, 359° | - | - |
| 1777796879 | 4.44° C | 63% | 1005.7 hPa | 0 mm | 1.34 m/s, 357° | - | - |
| 1777796579 | 4.44° C | 63% | 1005.7 hPa | 0 mm | 1.34 m/s, 5° | - | - |
| 1777796279 | 4.44° C | 63% | 1005.7 hPa | 0 mm | 0.89 m/s, 11° | - | - |
| 1777795979 | 4.44° C | 63% | 1005.6 hPa | 0 mm | 0.89 m/s, 359° | - | - |
| 1777795679 | 5° C | 62% | 1005.6 hPa | 0 mm | 0.89 m/s, 358° | - | - |
| 1777795379 | 5° C | 62% | 1005.6 hPa | 0 mm | 0.89 m/s, 349° | - | - |
| 1777795079 | 5° C | 62% | 1005.4 hPa | 0 mm | 1.34 m/s, 16° | - | - |
| 1777794779 | 5° C | 61% | 1005.4 hPa | 0 mm | 0.89 m/s, 0° | - | - |
| 1777794479 | 5° C | 60% | 1005.4 hPa | 0 mm | 0.89 m/s, 0° | - | - |
| 1777794179 | 5.56° C | 60% | 1005.3 hPa | 0 mm | 2.24 m/s, 333° | - | - |
| 1777793879 | 5.56° C | 60% | 1005.3 hPa | 0 mm | 2.24 m/s, 0° | - | - |
| 1777793579 | 5.56° C | 60% | 1005.3 hPa | 0 mm | 1.79 m/s, 345° | - | - |
| 1777793279 | 5.56° C | 60% | 1005.3 hPa | 0 mm | 1.79 m/s, 1° | - | - |
| 1777792979 | 5.56° C | 60% | 1005.3 hPa | 0 mm | 1.79 m/s, 0° | - | - |
* Rain latest hour (hover to see other rain measurements)
** Current wind speed in m/s (hover to see current wind gust speed)